This is the latest recevied weather packets stored in our database for station/object CE3MXM-13. If no packets are shown the sender has not sent any weather packets the latest 1 day(s).
| Time | Temp. | Humidity | Pressure | Rain* | Wind** | Luminosity | Snow |
|---|---|---|---|---|---|---|---|
| 1778002807 | 23.33° C | 43% | 1008.2 hPa | - | 0 m/s | - | - |
| 1778002507 | 22.78° C | 43% | 1008.3 hPa | - | 1.34 m/s, 210° | - | - |
| 1778002207 | 22.78° C | 44% | 1008.4 hPa | - | 2.24 m/s, 157° | - | - |
| 1778001907 | 22.78° C | 41% | 1008.3 hPa | - | 6.26 m/s, 164° | - | - |
| 1778001606 | 22.78° C | 42% | 1008.3 hPa | - | 0.89 m/s, 212° | - | - |
| 1778001306 | 22.78° C | 40% | 1008.3 hPa | - | 1.79 m/s, 172° | - | - |
| 1778001006 | 22.78° C | 40% | 1008.2 hPa | - | 2.24 m/s, 180° | - | - |
| 1778000706 | 22.22° C | 41% | 1008.2 hPa | - | 2.68 m/s, 177° | - | - |
| 1778000406 | 22.22° C | 41% | 1008.2 hPa | - | 1.79 m/s, 182° | - | - |
| 1778000106 | 22.22° C | 43% | 1008 hPa | - | 1.79 m/s, 188° | - | - |
| 1777999806 | 22.78° C | 41% | 1008.2 hPa | - | 2.68 m/s, 166° | - | - |
| 1777999505 | 23.33° C | 40% | 1008.3 hPa | - | 4.02 m/s, 162° | - | - |
| 1777999206 | 23.33° C | 41% | 1008.3 hPa | - | 1.79 m/s, 190° | - | - |
| 1777998905 | 23.33° C | 41% | 1008.3 hPa | - | 0.45 m/s, 188° | - | - |
| 1777998605 | 23.89° C | 42% | 1008.2 hPa | - | 0.89 m/s, 33° | - | - |
| 1777998305 | 23.33° C | 41% | 1008.3 hPa | - | 2.68 m/s, 308° | - | - |
| 1777998005 | 23.33° C | 44% | 1008.3 hPa | - | 0.45 m/s, 186° | - | - |
| 1777997705 | 23.33° C | 46% | 1008.2 hPa | - | 1.34 m/s, 148° | - | - |
| 1777997405 | 22.22° C | 48% | 1008.2 hPa | - | 0.45 m/s, 173° | - | - |
| 1777997105 | 21.67° C | 48% | 1008.4 hPa | - | 1.34 m/s, 221° | - | - |
| 1777996805 | 21.11° C | 50% | 1008.4 hPa | - | 2.68 m/s, 208° | - | - |
| 1777996505 | 21.67° C | 49% | 1008.4 hPa | - | 2.68 m/s, 163° | - | - |
| 1777996205 | 20.56° C | 52% | 1008.3 hPa | - | 0 m/s | - | - |
| 1777995904 | 21.11° C | 49% | 1008.3 hPa | - | 3.13 m/s, 191° | - | - |
| 1777995604 | 21.11° C | 50% | 1008.5 hPa | - | 0 m/s | - | - |
* Rain since midnight (hover to see other rain measurements)
** Current wind speed in m/s (hover to see current wind gust speed)